Terminal Aerodrome Forecast
Issued by NWS Twin Cities, MN

Home | Current Version | Previous Version | Graphics & Text | Print | Product List | Glossary On
Versions: 1 2 3 4 5 6 7 8 9 10 11 12 13 14 15 16 17 18 19 20 21 22 23 24 25 26 27 28 29 30
000
FTUS43 KMPX 170845 AAA
TAFMSP
TAF AMD
KMSP 170845Z 1709/1812 17008KT 6SM BR VCSH OVC009
      TEMPO 1709/1712 4SM -SHRA BR SCT009 BKN015
     FM171200 26009KT 4SM -RA BR OVC007
     FM171600 30012G20KT P6SM OVC008
     FM172000 30017G25KT P6SM BKN018
     FM180000 31013G20KT P6SM SCT020 BKN040
     FM180200 32007KT P6SM SCT040 SCT250=

USA.gov is the U.S. government's official web portal to all federal, state and local government web resources and services.